Location: Dealu Mare
(46.0500°N, 22.8167°E)
Time: 20:39:51
(UTC+00:00)

CZ-4C R/B - Pass Details

Date: 15 January 2026
Orbit: 483 x 1496 km, 63.4° (Epoch: 10 February)

Event Time Altitude Azimuth Distance (km) Brightness Sun altitude
Exits shadow 02:48:15 15° 7° (N) 2,279 4.5 -33.9°
Drops below altitude 10° 02:50:52 10° 31° (NNE) 2,763 5.2 -33.5°
Sets 02:55:09 0° 52° (NE) 3,960 6.4 -32.7°
